User: anonymous   Login
Location: Julian California
(33.0790°N, 116.6010°W)
Time: 13:11:56
(UTC-08:00)
Language:

Cosmos 1697 Rocket - Orbit

View from above orbital plane
View from above orbital plane
View from above satellite
View from above satellite

Ground track
Ground track

The orbit data is extracted from the following two-line orbital elements,

1 16182U 85097B   19315.51934348  .00000232  00000-0  14111-3 0  9991
2 16182  71.0023 322.1450 0007823 194.5592 325.9474 14.16246741760435
Epoch (UTC): 11 November 2019 12:27:51
Eccentricity: 0.0007823
inclination: 71.0023°
perigee height: 832 km
apogee height: 844 km
right ascension of ascending node: 322.1450°
argument of perigee: 194.5592°
revolutions per day: 14.16246741
mean anomaly at epoch: 325.9474°
orbit number at epoch: 76043

The dashed part of the orbit path shows where the satellite is in the earth's shadow,  

DLR